Погода в Погорелове

Россия / Вологодская область     59°42′22″N   42°02′17″E
В апреле 2022 года жителям России запретили посещать сайт meteo.paraplan.net по решению Генеральной прокуратуры. Аудитория сайта уменьшилась в 10 раз. Владельцы сайта не видят смысла в поддержке погодного сервера в таких условиях. Сайт будет закрыт в октябре.
темп.,
°C
ветер,
м/с
пор.,
м/с
влажн.,
%
обл.,
%
осадки,
мм/ч
давл.,
гПа
погр.,
м
30 сентября, пт
пт3000:00+3юв2510097 0.0 1015227
03:00+3юв37100100 0.0 1016253
06:00+5юв41199100 0.0 1016356
09:00+8ююв41394100 0.0 1016506
12:00+10ююв41194100 0.1 1017681
15:00+10ю4992100 0.2 1017822
18:00+10ююв41296100 0.7 1016577
21:00+10ююв51297100 2.1 1015717
1 октября, сб
сб100:00+10ююз3999100 1.7 1015554
03:00+9зюз2698100 1.9 1016271
06:00+6з229711 0.0 101734
09:00+9зюз138959 0.0 1017193
12:00+12зюз237385 0.0 1016790
15:00+13юз1168100 0.0 1015827
18:00+9в1188100 0.0 101510
21:00+8всв2295100 0.0 101350
2 октября, вс
вс200:00+9св2694100 0.0 1010221
03:00+9всв4998100 0.7 1007359
06:00+10в3899100 3.9 1005375
09:00+11всв3899100 4.6 1002368
12:00+12юв2698100 10.5 1000332
15:00+11ююз4995100 12.1 1001710
18:00+9ююз2598100 0.1 1003406
21:00+8ссз2597100 0.3 1005349
3 октября, пн
пн300:00+7с3696100 0.1 1007421
03:00+7ссв2596100 0.3 1009436
06:00+7св3796100 0.1 1010431
09:00+7всв4996100 0.1 1009433
12:00+8всв51198100 3.6 1008480
15:00+9в61396100 8.3 1006581
18:00+11в51495100 0.4 1005785
21:00+14юв61589100 0.6 10031073
4 октября, вт
вт400:00+13юв6148798 0.2 10041134
03:00+11ю61386100 0.4 10051144
06:00+9ююв5128699 0.1 1007934
09:00+9ююв6138230 0.1 10091236
12:00+10ю51278100 0.3 10111468
15:00+10ю511745 0.4 10121250
18:00+9ю512755 0.0 1014772
21:00+8ю5147711 0.0 1015812